Location: ??
(34.9170°N, 135.5016°E)
Time: 14:47:08
(UTC+00:00)

RS-15 - Visible Passes

Search period start: 20 April 2021 00:00
Search period end: 30 April 2021 00:00
Orbit: 1888 x 2156 km, 64.8° (Epoch: 19 April)

Date Brightness Start Highest point End Pass type
(mag) Time Alt. Az. Time Alt. Az. Time Alt. Az.
20 Apr 8.9 10:29:45 10° SW 10:40:19 51° NW 10:51:28 10° NNE visible
20 Apr 10.2 12:49:58 10° WNW 12:56:33 17° NNW 13:03:20 10° NNE visible
20 Apr 10.3 15:10:21 10° NNW 15:16:21 15° NNE 15:22:27 10° NE visible
20 Apr 9.2 17:22:22 10° NNW 17:33:32 41° NE 17:44:52 10° ESE visible
20 Apr 8.2 19:34:42 10° NW 19:46:27 60° WSW 19:58:23 10° S visible
21 Apr 8.6 09:53:12 10° SW 10:04:03 65° WNW 10:15:29 10° NNE visible
21 Apr 10.1 12:11:44 10° WNW 12:19:22 20° NNW 12:27:17 10° NNE visible
21 Apr 10.3 14:33:51 10° NNW 14:38:52 13° N 14:43:56 10° NE visible
21 Apr 9.5 16:46:28 10° NNW 16:56:55 33° NE 17:07:33 10° ESE visible
21 Apr 8.1 18:58:28 10° NNW 19:10:32 77° WSW 19:22:49 10° SSE visible
22 Apr 10.0 11:33:46 10° W 11:42:22 24° NW 11:51:19 10° NNE visible
22 Apr 10.4 13:56:49 10° NNW 14:01:18 12° N 14:05:51 10° NNE visible
22 Apr 9.7 16:10:34 10° NNW 16:20:08 27° NE 16:29:52 10° E visible
22 Apr 8.2 18:22:22 10° NNW 18:34:32 85° ENE 18:46:54 10° SSE visible
23 Apr 9.7 10:56:09 10° W 11:05:33 31° NW 11:15:24 10° NNE visible
23 Apr 10.4 13:19:04 10° NNW 13:23:43 13° N 13:28:28 10° NNE visible
23 Apr 9.9 15:34:38 10° NNW 15:43:10 22° NNE 15:51:51 10° ENE visible
23 Apr 8.4 17:46:21 10° NNW 17:58:24 68° ENE 18:10:39 10° SE visible
24 Apr 9.5 10:18:53 10° WSW 10:28:55 38° NW 10:39:29 10° NNE visible
24 Apr 10.3 12:40:48 10° NW 12:46:13 14° NNW 12:51:46 10° NNE visible
24 Apr 10.1 14:58:38 10° NNW 15:06:00 18° NNE 15:13:30 10° ENE visible
24 Apr 8.7 17:10:23 10° NNW 17:22:07 54° NE 17:34:04 10° SE visible
24 Apr 8.4 19:23:16 10° NW 19:34:19 44° WSW 19:45:32 10° S visible
25 Apr 9.1 09:41:57 10° SW 09:52:28 49° NW 10:03:33 10° NNE visible
25 Apr 10.3 12:02:24 10° WNW 12:08:50 16° NNW 12:15:29 10° NNE visible
25 Apr 10.2 14:22:29 10° NNW 14:28:40 15° NNE 14:34:57 10° NE visible
25 Apr 9.1 16:34:27 10° NNW 16:45:43 43° NE 16:57:10 10° ESE visible
25 Apr 8.2 18:46:51 10° NW 18:58:32 58° WSW 19:10:24 10° S visible
26 Apr 10.2 11:24:08 10° WNW 11:31:38 19° NNW 11:39:23 10° NNE visible
26 Apr 10.3 13:46:03 10° NNW 13:51:12 13° N 13:56:25 10° NE visible
26 Apr 9.4 15:58:33 10° NNW 16:09:08 34° NE 16:19:53 10° ESE visible
26 Apr 8.1 18:10:36 10° NNW 18:22:39 74° WSW 18:34:53 10° SSE visible
27 Apr 10.1 10:46:08 10° W 10:54:36 24° NW 11:03:25 10° NNE visible
27 Apr 10.3 13:09:06 10° NNW 13:13:38 13° N 13:18:14 10° NNE visible
27 Apr 9.6 15:22:39 10° NNW 15:32:22 27° NE 15:42:16 10° E visible
27 Apr 8.1 17:34:29 10° NNW 17:46:40 88° ENE 17:59:01 10° SSE visible
28 Apr 9.9 10:08:28 10° W 10:17:45 30° NW 10:27:30 10° NNE visible
28 Apr 10.3 12:31:27 10° NNW 12:36:04 13° N 12:40:45 10° NNE visible
28 Apr 9.8 14:46:43 10° NNW 14:55:26 22° NNE 15:04:17 10° E visible
28 Apr 8.3 16:58:26 10° NNW 17:10:32 71° ENE 17:22:49 10° SE visible
28 Apr 8.7 19:12:11 10° NW 19:22:03 31° WSW 19:32:04 10° SSW visible
29 Apr 10.3 11:53:15 10° NW 11:58:32 14° NNW 12:03:58 10° NNE visible
29 Apr 10.0 14:10:44 10° NNW 14:18:17 18° NNE 14:25:59 10° ENE visible
29 Apr 8.6 16:22:29 10° NNW 16:34:17 56° NE 16:46:18 10° SE visible
29 Apr 8.4 18:35:27 10° NW 18:46:23 42° WSW 18:57:29 10° S visible
